Starlink 11508

operational
NORAD ID: 62515 Int'l Des: 2025-004 Owner: SPXS Country: US Constellation: starlink
LEOCIRCULAR

About Starlink 11508

Description loading...

Live Position

Loading 3D Globe...

Upcoming Passes

Altitude History

Altitude vs Time

uPlot chart will show altitude changes over time

Two-Line Element Set

1 62515U 25004E 25344.12099389 .00231350 00000-0 17505-2 0 9993
2 62515 43.0001 250.4458 0002136 261.1229 98.9397 15.70924213 53122
Epoch: Dec 10, 2025 • Age: 16 hours

Current Status

Altitude 354.7 km
Velocity 7.70 km/s
Sub-Earth Point 5.83°N, 57.11°E
Launch Date Jan 8, 2025
Age 0.9 years
Type internet

Technical Details

Classification Payload
Mass 960.00 kg
Dry Mass 910.00 kg
Total Mass 960.00 kg
Length 0.30 m
Diameter 4.10 m
Span 29.00 m
Shape Box + pan
Manufacturer SPXS
Bus Type Starlink V2MD
Phase Status In Orbit
Owner/State SPXS/US

Large Constellations

Loading constellations...